When you browse on this site, cookies collect data to enhance your experience and personalize the content and advertising you see.
Visit our Privacy Policy to learn more. By continuing to use the site, you agree to this use of cookies and data.
  • In Czech Republic
  • List of Countries
  • For 7 days
  • Water Temperature
  • Satellite Maps
  • Weather Map
  • Weather Widgets
  • user-avatar
    Login

    Hourly Weather Mazatenango

    Today, 15 December, Saturday

    Time Temperature Precipitation Wind Pressure Humidity
    00:00 +24°C° 0 mm 1 mps 728 mmHg 77%
    01:00 +24°C° 0 mm 1 mps 728 mmHg 77%
    02:00 +24°C° 0 mm 1 mps 728 mmHg 76%
    03:00 +24°C° 0 mm 1 mps 728 mmHg 76%
    04:00 +24°C° 0 mm 1 mps 728 mmHg 75%
    05:00 +24°C° 0 mm 1 mps 728 mmHg 74%
    06:00 +24°C° 0 mm 1 mps 728 mmHg 74%
    07:00 +25°C° 0 mm 1 mps 729 mmHg 69%
    08:00 +27°C° 0 mm 1 mps 729 mmHg 65%
    09:00 +29°C° 0 mm 1 mps 729 mmHg 60%
    10:00 +30°C° 0 mm 2 mps 729 mmHg 58%
    11:00 +31°C° 0 mm 2 mps 729 mmHg 56%
    12:00 +33°C° 0 mm 3 mps 729 mmHg 53%
    13:00 +31°C° 0.1 mm 3 mps 728 mmHg 54%
    14:00 +31°C° 0.1 mm 3 mps 728 mmHg 56%
    15:00 +31°C° 0.1 mm 3 mps 727 mmHg 57%
    16:00 +29°C° 0 mm 3 mps 728 mmHg 63%
    17:00 +27°C° 0 mm 2 mps 728 mmHg 70%
    18:00 +25°C° 0 mm 2 mps 728 mmHg 77%
    19:00 +25°C° 0 mm 2 mps 728 mmHg 73%
    20:00 +24°C° 0 mm 2 mps 729 mmHg 69%
    21:00 +24°C° 0 mm 2 mps 730 mmHg 65%
    22:00 +24°C° 0 mm 2 mps 730 mmHg 64%
    23:00 +24°C° 0 mm 2 mps 730 mmHg 63%

    Tomorrow, 16 December, Sunday

    Time Temperature Precipitation Wind Pressure Humidity
    00:00 +23°C° 0 mm 2 mps 730 mmHg 63%
    01:00 +23°C° 0 mm 2 mps 729 mmHg 62%
    02:00 +23°C° 0 mm 2 mps 729 mmHg 62%
    03:00 +23°C° 0 mm 2 mps 728 mmHg 62%
    04:00 +23°C° 0 mm 2 mps 729 mmHg 62%
    05:00 +23°C° 0 mm 2 mps 729 mmHg 62%
    06:00 +22°C° 0 mm 1 mps 729 mmHg 61%
    07:00 +25°C° 0 mm 1 mps 729 mmHg 57%
    08:00 +27°C° 0 mm 1 mps 730 mmHg 52%
    09:00 +29°C° 0 mm 1 mps 730 mmHg 48%
    10:00 +30°C° 0 mm 1 mps 730 mmHg 46%
    11:00 +32°C° 0 mm 2 mps 730 mmHg 44%
    12:00 +34°C° 0 mm 2 mps 729 mmHg 42%
    13:00 +34°C° 0 mm 2 mps 729 mmHg 45%
    14:00 +33°C° 0 mm 3 mps 728 mmHg 49%
    15:00 +33°C° 0 mm 3 mps 727 mmHg 52%
    16:00 +29°C° 0 mm 2 mps 727 mmHg 61%
    17:00 +27°C° 0 mm 2 mps 727 mmHg 70%
    18:00 +25°C° 0 mm 1 mps 728 mmHg 79%
    19:00 +25°C° 0 mm 1 mps 728 mmHg 76%
    20:00 +25°C° 0 mm 1 mps 729 mmHg 73%
    21:00 +25°C° 0 mm 1 mps 729 mmHg 69%
    22:00 +24°C° 0 mm 1 mps 729 mmHg 69%
    23:00 +24°C° 0 mm 1 mps 729 mmHg 68%

    Day after tomorrow, 17 December, Monday

    Time Temperature Precipitation Wind Pressure Humidity
    00:00 +24°C° 0 mm 1 mps 729 mmHg 67%
    01:00 +24°C° 0 mm 1 mps 729 mmHg 67%
    02:00 +24°C° 0 mm 1 mps 728 mmHg 67%
    03:00 +23°C° 0 mm 1 mps 728 mmHg 67%
    04:00 +23°C° 0 mm 1 mps 728 mmHg 67%
    05:00 +23°C° 0 mm 1 mps 728 mmHg 66%
    06:00 +23°C° 0 mm 1 mps 728 mmHg 65%
    07:00 +25°C° 0 mm 1 mps 729 mmHg 60%
    08:00 +27°C° 0 mm 1 mps 730 mmHg 55%
    09:00 +30°C° 0 mm 1 mps 730 mmHg 50%
    10:00 +31°C° 0 mm 1 mps 730 mmHg 48%
    11:00 +32°C° 0 mm 2 mps 730 mmHg 46%
    12:00 +34°C° 0 mm 2 mps 729 mmHg 44%
    13:00 +34°C° 0 mm 2 mps 728 mmHg 47%
    14:00 +32°C° 0 mm 2 mps 727 mmHg 50%
    15:00 +31°C° 0 mm 2 mps 726 mmHg 53%
    16:00 +29°C° 0 mm 2 mps 727 mmHg 62%
    17:00 +28°C° 0 mm 2 mps 727 mmHg 70%
    18:00 +26°C° 0 mm 2 mps 727 mmHg 79%
    19:00 +25°C° 0 mm 2 mps 728 mmHg 77%
    20:00 +25°C° 0 mm 2 mps 728 mmHg 75%
    21:00 +25°C° 0 mm 2 mps 729 mmHg 73%
    22:00 +24°C° 0 mm 2 mps 729 mmHg 72%
    23:00 +24°C° 0 mm 1 mps 728 mmHg 71%

    18 December, Tuesday

    Time Temperature Precipitation Wind Pressure Humidity
    00:00 +24°C° 0 mm 1 mps 728 mmHg 70%
    01:00 +24°C° 0 mm 1 mps 728 mmHg 69%
    02:00 +24°C° 0 mm 1 mps 727 mmHg 69%
    03:00 +23°C° 0 mm 1 mps 727 mmHg 68%
    04:00 +23°C° 0 mm 1 mps 727 mmHg 67%
    05:00 +23°C° 0 mm 1 mps 727 mmHg 67%
    06:00 +23°C° 0 mm 1 mps 727 mmHg 66%
    07:00 +25°C° 0 mm 1 mps 728 mmHg 60%
    08:00 +28°C° 0 mm 1 mps 728 mmHg 54%
    09:00 +30°C° 0 mm 1 mps 729 mmHg 48%
    10:00 +31°C° 0 mm 1 mps 728 mmHg 46%
    11:00 +32°C° 0 mm 1 mps 728 mmHg 44%
    12:00 +34°C° 0 mm 2 mps 727 mmHg 42%
    13:00 +32°C° 0 mm 2 mps 727 mmHg 46%
    14:00 +31°C° 0 mm 2 mps 726 mmHg 50%
    15:00 +31°C° 0 mm 2 mps 726 mmHg 54%
    16:00 +29°C° 0 mm 1 mps 726 mmHg 62%
    17:00 +27°C° 0 mm 1 mps 726 mmHg 70%
    18:00 +26°C° 0 mm 1 mps 726 mmHg 78%
    19:00 +25°C° 0 mm 1 mps 727 mmHg 79%
    20:00 +25°C° 0 mm 1 mps 727 mmHg 79%
    21:00 +24°C° 0 mm 1 mps 728 mmHg 80%
    22:00 +24°C° 0 mm 1 mps 728 mmHg 79%
    23:00 +24°C° 0 mm 1 mps 728 mmHg 78%

    19 December, Wednesday

    Time Temperature Precipitation Wind Pressure Humidity
    00:00 +24°C° 0 mm 1 mps 727 mmHg 76%
    01:00 +24°C° 0 mm 1 mps 727 mmHg 76%
    02:00 +24°C° 0 mm 1 mps 727 mmHg 76%
    03:00 +24°C° 0 mm 1 mps 726 mmHg 75%
    04:00 +24°C° 0 mm 1 mps 726 mmHg 74%
    05:00 +23°C° 0 mm 1 mps 727 mmHg 73%
    06:00 +23°C° 0 mm 1 mps 727 mmHg 73%
    07:00 +25°C° 0 mm 1 mps 727 mmHg 65%
    08:00 +27°C° 0 mm 1 mps 728 mmHg 57%
    09:00 +30°C° 0 mm 1 mps 728 mmHg 49%
    10:00 +31°C° 0 mm 1 mps 728 mmHg 47%
    11:00 +32°C° 0 mm 1 mps 727 mmHg 44%
    12:00 +33°C° 0 mm 1 mps 727 mmHg 42%
    13:00 +32°C° 0 mm 2 mps 726 mmHg 44%
    14:00 +32°C° 0 mm 2 mps 725 mmHg 47%
    15:00 +31°C° 0 mm 2 mps 724 mmHg 49%
    16:00 +29°C° 0 mm 2 mps 725 mmHg 58%
    17:00 +27°C° 0 mm 1 mps 725 mmHg 66%
    18:00 +25°C° 0 mm 1 mps 725 mmHg 74%
    19:00 +25°C° 0 mm 1 mps 726 mmHg 74%
    20:00 +24°C° 0 mm 1 mps 726 mmHg 74%
    21:00 +24°C° 0 mm 1 mps 727 mmHg 74%
    22:00 +24°C° 0 mm 1 mps 727 mmHg 73%
    23:00 +23°C° 0 mm 1 mps 726 mmHg 73%

    20 December, Thursday

    Time Temperature Precipitation Wind Pressure Humidity
    00:00 +23°C° 0 mm 1 mps 726 mmHg 72%
    01:00 +23°C° 0 mm 2 mps 726 mmHg 70%
    02:00 +21°C° 0 mm 2 mps 726 mmHg 69%
    03:00 +21°C° 0 mm 2 mps 726 mmHg 67%
    04:00 +21°C° 0 mm 2 mps 726 mmHg 63%
    05:00 +21°C° 0 mm 2 mps 726 mmHg 58%
    06:00 +21°C° 0 mm 2 mps 726 mmHg 54%
    07:00 +24°C° 0 mm 1 mps 727 mmHg 48%
    08:00 +27°C° 0 mm 1 mps 727 mmHg 43%
    09:00 +29°C° 0 mm 1 mps 728 mmHg 38%
    10:00 +31°C° 0 mm 1 mps 727 mmHg 35%
    11:00 +32°C° 0 mm 2 mps 727 mmHg 32%
    12:00 +34°C° 0 mm 2 mps 727 mmHg 29%
    13:00 +34°C° 0 mm 2 mps 726 mmHg 31%
    14:00 +32°C° 0 mm 2 mps 725 mmHg 33%
    15:00 +33°C° 0 mm 3 mps 725 mmHg 36%
    16:00 +30°C° 0 mm 2 mps 725 mmHg 44%
    17:00 +27°C° 0 mm 2 mps 725 mmHg 53%
    18:00 +25°C° 0 mm 2 mps 725 mmHg 62%
    19:00 +25°C° 0 mm 2 mps 726 mmHg 63%
    20:00 +24°C° 0 mm 2 mps 726 mmHg 65%
    21:00 +24°C° 0 mm 2 mps 727 mmHg 66%
    22:00 +24°C° 0 mm 2 mps 727 mmHg 68%
    23:00 +24°C° 0 mm 1 mps 727 mmHg 69%
    Show more